FREGAT DEB, 45823

Orbit data source: Space-Track

FREGAT DEB, 45823 is space debris in LEO originally from a launch on Mon, 18 Jul 2011 UTC launched from the Tyuratam Missile And Space Complex (TTMTR). Debris objects in space refer to the collection of defunct objects orbiting the Earth. Examples of debris include non-operational satellites, rocket bodies, and fragments generated from explosions, collisions, or faulty payload assembly.

Loading next visibility...
Identifier
45823, 2011-037BH
Orbit
LEO
Country
Flag of CISCIS
Related business
Manufacturer
Lavochkin
Mission
Spacecraft
Bus & Motor
Unknown
Mass
Unknown
Launch date (UTC)
2011-07-18 (14 years ago)
Launch vehicle
Unknown
Launch site
Tyuratam Missile And Space Complex (TTMTR)
Object type
Payload
Rocket body
Debris
Shape & HBR
Unknown shape, 0.3 m
Radar Cross Section
Small (<0.1 m²)

Expand to show TLE details & history
Last TLE update: 3 days ago

TLE from 3 days ago
0 FREGAT DEB
1 45823U 11037BH  25289.09449571  .00003891  00000-0  82042-3 0  9999
2 45823  51.4456  66.8314 1879461 217.2261 128.2529 11.32325112221302
Epoch: 2025-10-16T02:16Z
TLE epoch observation values (Epoch: 2025-10-16T02:16:04.429Z)
Latitude
-0.00003°
Longitude
7.95377°
Altitude
3,127.325 km
Speed
6.026 km/s
True Right ascension
04h 27m 19s
True Declination
0° 00' 00"
Sunlit
Object was in daylight at epoch
Visualization orbit readout
Latitude
Unknown
Longitude
Unknown
Altitude
Unknown
Speed
Unknown
Apparent Right ascension
Unknown
Apparent Declination
Unknown
Sunlit
N/A
Visualization observer readout
Local Sidereal Time
13:20:41
Azimuth
Unknown
Elevation
Unknown
Doppler factor
Unknown
Orbital elements
Apogee altitude
3,573.821 km
Perigee altitude
424.803 km
Semi-major axis
8,377.449 km
Eccentricity
0.18795
Inclination
51.4456°
RAAN
66.8314°
Arg. of periapsis
217.2261°
True anomaly
142.8535°
Mean anomaly
128.2529°
Eccentric anomaly
135.76504°
Mean motion
2.83058 °/min
Orbital period
127.18 mins
BSTAR
0.00082042
Loading maneuver chart data...
Computing Atmospheric mass density...
Loading historical data...
Loading historical data...
Loading historical data...
Loading historical data...
Loading historical data...
Loading historical data...
Loading historical data...

Documentation

Showing up to 5 results
|